Previsão horária em Abancay

Hoje, 30 Setembro, Quarta-feira

Tempo Temperatura Precipitação Vento Pressão Humidade
00:00 +13°C° 0.2 mm 1 m/s 544 mmHg 91%
01:00 +12°C° 0.2 mm 1 m/s 544 mmHg 91%
02:00 +12°C° 0.1 mm 1 m/s 544 mmHg 91%
03:00 +12°C° 0.1 mm 1 m/s 544 mmHg 91%
04:00 +12°C° 0.1 mm 1 m/s 543 mmHg 91%
05:00 +12°C° 0.1 mm 1 m/s 544 mmHg 87%
06:00 +13°C° 0.1 mm 1 m/s 545 mmHg 84%
07:00 +13°C° 0.1 mm 1 m/s 545 mmHg 81%
08:00 +15°C° 0.2 mm 1 m/s 546 mmHg 73%
09:00 +16°C° 0.2 mm 1 m/s 547 mmHg 65%
10:00 +19°C° 0.2 mm 1 m/s 547 mmHg 58%
11:00 +18°C° 0.5 mm 2 m/s 547 mmHg 56%
12:00 +19°C° 0.5 mm 2 m/s 546 mmHg 54%
13:00 +20°C° 0.5 mm 3 m/s 546 mmHg 52%
14:00 +19°C° 1 mm 3 m/s 545 mmHg 56%
15:00 +19°C° 1 mm 3 m/s 545 mmHg 59%
16:00 +18°C° 1 mm 3 m/s 544 mmHg 63%
17:00 +17°C° 0.6 mm 3 m/s 544 mmHg 71%
18:00 +16°C° 0.6 mm 2 m/s 544 mmHg 79%
19:00 +14°C° 0.6 mm 2 m/s 544 mmHg 87%
20:00 +14°C° 0.1 mm 1 m/s 544 mmHg 89%
21:00 +13°C° 0.1 mm 1 m/s 544 mmHg 91%
22:00 +13°C° 0.1 mm 1 m/s 544 mmHg 92%
23:00 +13°C° 0 mm 1 m/s 544 mmHg 92%

Amanhã, 1 Outubro, Quinta-feira

Tempo Temperatura Precipitação Vento Pressão Humidade
00:00 +13°C° 0 mm 1 m/s 544 mmHg 91%
01:00 +12°C° 0 mm 1 m/s 543 mmHg 90%
02:00 +12°C° 0.1 mm 1 m/s 543 mmHg 91%
03:00 +12°C° 0.1 mm 1 m/s 543 mmHg 91%
04:00 +12°C° 0.1 mm 1 m/s 542 mmHg 91%
05:00 +11°C° 0 mm 0 m/s 543 mmHg 88%
06:00 +12°C° 0 mm 0 m/s 544 mmHg 84%
07:00 +12°C° 0 mm 0 m/s 544 mmHg 80%
08:00 +15°C° 0.1 mm 1 m/s 545 mmHg 72%
09:00 +17°C° 0.1 mm 2 m/s 546 mmHg 63%
10:00 +19°C° 0.1 mm 2 m/s 547 mmHg 54%
11:00 +20°C° 0.4 mm 3 m/s 546 mmHg 52%
12:00 +20°C° 0.4 mm 3 m/s 546 mmHg 50%
13:00 +21°C° 0.4 mm 3 m/s 545 mmHg 47%
14:00 +21°C° 1 mm 3 m/s 545 mmHg 51%
15:00 +20°C° 1 mm 3 m/s 544 mmHg 54%
16:00 +19°C° 1 mm 3 m/s 543 mmHg 58%
17:00 +18°C° 0.5 mm 3 m/s 543 mmHg 66%
18:00 +16°C° 0.5 mm 2 m/s 543 mmHg 74%
19:00 +15°C° 0.5 mm 2 m/s 543 mmHg 82%
20:00 +14°C° 0 mm 2 m/s 543 mmHg 85%
21:00 +14°C° 0 mm 2 m/s 543 mmHg 88%
22:00 +13°C° 0 mm 1 m/s 543 mmHg 91%
23:00 +13°C° 0 mm 1 m/s 543 mmHg 91%

Depois de amanhã, 2 Outubro, Sexta-feira

Tempo Temperatura Precipitação Vento Pressão Humidade
00:00 +13°C° 0 mm 1 m/s 542 mmHg 92%
01:00 +12°C° 0 mm 1 m/s 542 mmHg 93%
02:00 +12°C° 0 mm 1 m/s 542 mmHg 93%
03:00 +12°C° 0 mm 1 m/s 542 mmHg 92%
04:00 +12°C° 0 mm 1 m/s 541 mmHg 91%
05:00 +12°C° 0 mm 1 m/s 542 mmHg 88%
06:00 +13°C° 0 mm 1 m/s 543 mmHg 85%
07:00 +13°C° 0 mm 1 m/s 543 mmHg 83%
08:00 +15°C° 0.1 mm 1 m/s 544 mmHg 74%
09:00 +17°C° 0.1 mm 2 m/s 545 mmHg 66%
10:00 +18°C° 0.1 mm 2 m/s 546 mmHg 58%
11:00 +19°C° 0.7 mm 3 m/s 545 mmHg 59%
12:00 +19°C° 0.7 mm 3 m/s 545 mmHg 60%
13:00 +19°C° 0.7 mm 4 m/s 544 mmHg 61%
14:00 +19°C° 0.7 mm 3 m/s 544 mmHg 62%
15:00 +19°C° 0.7 mm 3 m/s 544 mmHg 62%
16:00 +19°C° 0.7 mm 3 m/s 543 mmHg 62%
17:00 +17°C° 0.4 mm 3 m/s 543 mmHg 70%
18:00 +16°C° 0.4 mm 2 m/s 543 mmHg 78%
19:00 +14°C° 0.4 mm 2 m/s 543 mmHg 86%
20:00 +14°C° 0.1 mm 2 m/s 544 mmHg 88%
21:00 +14°C° 0.1 mm 1 m/s 544 mmHg 89%
22:00 +13°C° 0.1 mm 1 m/s 544 mmHg 91%
23:00 +13°C° 0.1 mm 1 m/s 544 mmHg 91%

3 Outubro, Sábado

Tempo Temperatura Precipitação Vento Pressão Humidade
00:00 +13°C° 0.1 mm 1 m/s 544 mmHg 91%
01:00 +13°C° 0.1 mm 1 m/s 544 mmHg 91%
02:00 +13°C° 0.2 mm 1 m/s 543 mmHg 91%
03:00 +13°C° 0.2 mm 1 m/s 543 mmHg 90%
04:00 +12°C° 0.2 mm 0 m/s 543 mmHg 90%
05:00 +12°C° 0.5 mm 0 m/s 544 mmHg 89%
06:00 +12°C° 0.5 mm 0 m/s 544 mmHg 88%
07:00 +12°C° 0.5 mm 0 m/s 544 mmHg 87%
08:00 +14°C° 0.4 mm 1 m/s 545 mmHg 81%
09:00 +15°C° 0.4 mm 1 m/s 546 mmHg 76%
10:00 +16°C° 0.4 mm 1 m/s 546 mmHg 70%
11:00 +18°C° 0.9 mm 2 m/s 546 mmHg 65%
12:00 +19°C° 0.9 mm 2 m/s 546 mmHg 61%
13:00 +20°C° 0.9 mm 3 m/s 546 mmHg 56%
14:00 +19°C° 1 mm 3 m/s 545 mmHg 59%
15:00 +19°C° 1 mm 3 m/s 545 mmHg 62%
16:00 +18°C° 1 mm 3 m/s 544 mmHg 65%
17:00 +17°C° 0.4 mm 2 m/s 544 mmHg 72%
18:00 +16°C° 0.4 mm 2 m/s 544 mmHg 80%
19:00 +14°C° 0.4 mm 2 m/s 544 mmHg 87%
20:00 +14°C° 0.1 mm 2 m/s 544 mmHg 88%
21:00 +14°C° 0.1 mm 1 m/s 544 mmHg 90%
22:00 +13°C° 0.1 mm 1 m/s 545 mmHg 91%
23:00 +13°C° 0.1 mm 1 m/s 544 mmHg 90%

4 Outubro, Domingo

Tempo Temperatura Precipitação Vento Pressão Humidade
00:00 +13°C° 0.1 mm 1 m/s 544 mmHg 89%
01:00 +13°C° 0.1 mm 1 m/s 544 mmHg 89%
02:00 +13°C° 0.1 mm 1 m/s 544 mmHg 89%
03:00 +13°C° 0.1 mm 1 m/s 544 mmHg 88%
04:00 +13°C° 0.1 mm 1 m/s 544 mmHg 88%
05:00 +13°C° 0.1 mm 1 m/s 545 mmHg 85%
06:00 +13°C° 0.1 mm 1 m/s 545 mmHg 82%
07:00 +14°C° 0.1 mm 1 m/s 546 mmHg 79%
08:00 +15°C° 0.2 mm 1 m/s 546 mmHg 71%
09:00 +17°C° 0.2 mm 2 m/s 547 mmHg 62%
10:00 +19°C° 0.2 mm 2 m/s 548 mmHg 54%
11:00 +19°C° 0.3 mm 3 m/s 548 mmHg 52%
12:00 +20°C° 0.3 mm 3 m/s 547 mmHg 50%
13:00 +20°C° 0.3 mm 3 m/s 547 mmHg 48%
14:00 +19°C° 0.5 mm 3 m/s 546 mmHg 54%
15:00 +18°C° 0.5 mm 3 m/s 545 mmHg 59%
16:00 +17°C° 0.5 mm 3 m/s 544 mmHg 65%
17:00 +16°C° 0.2 mm 2 m/s 544 mmHg 70%
18:00 +15°C° 0.2 mm 2 m/s 545 mmHg 76%
19:00 +14°C° 0.2 mm 2 m/s 545 mmHg 81%
20:00 +14°C° 0 mm 1 m/s 545 mmHg 84%
21:00 +13°C° 0 mm 1 m/s 545 mmHg 87%
22:00 +13°C° 0 mm 1 m/s 545 mmHg 90%
23:00 +13°C° 0.2 mm 1 m/s 545 mmHg 91%

5 Outubro, Segunda-feira

Tempo Temperatura Precipitação Vento Pressão Humidade
00:00 +13°C° 0.2 mm 1 m/s 545 mmHg 91%
01:00 +12°C° 0.2 mm 1 m/s 544 mmHg 91%
02:00 +12°C° 0.1 mm 1 m/s 544 mmHg 91%
03:00 +11°C° 0.1 mm 0 m/s 544 mmHg 91%
04:00 +11°C° 0.1 mm 0 m/s 544 mmHg 91%
05:00 +12°C° 0 mm 0 m/s 544 mmHg 87%
06:00 +12°C° 0 mm 0 m/s 545 mmHg 83%
07:00 +14°C° 0 mm 1 m/s 546 mmHg 78%
08:00 +15°C° 0.5 mm 1 m/s 546 mmHg 70%
09:00 +18°C° 0.5 mm 1 m/s 547 mmHg 62%
10:00 +19°C° 0.5 mm 2 m/s 548 mmHg 54%
11:00 +19°C° 0.9 mm 2 m/s 547 mmHg 53%
12:00 +20°C° 0.9 mm 3 m/s 547 mmHg 51%
13:00 +20°C° 0.9 mm 3 m/s 546 mmHg 50%
14:00 +20°C° 0.7 mm 3 m/s 546 mmHg 52%
15:00 +19°C° 0.7 mm 3 m/s 546 mmHg 53%
16:00 +19°C° 0.7 mm 3 m/s 545 mmHg 55%
17:00 +18°C° 0.7 mm 2 m/s 545 mmHg 62%
18:00 +16°C° 0.7 mm 2 m/s 545 mmHg 69%
19:00 +15°C° 0.7 mm 1 m/s 545 mmHg 76%
20:00 +15°C° 1 mm 1 m/s 545 mmHg 79%
21:00 +14°C° 1 mm 1 m/s 545 mmHg 82%
22:00 +13°C° 1 mm 1 m/s 545 mmHg 84%
23:00 +13°C° 0.5 mm 1 m/s 545 mmHg 85%
Mostrar mais